Theta_e
307 307 307 308 308 308 307 307 308 308 308 308 308 308 308 308 307 307 307 306 309 310 314 314 314 314 316 311 315 320 320 320 319 316 315 317 317 319 320 321 324 325 349 352 354
307 307 307 307 307 307 307 308 308 308 309 308 309 308 308 308 307 308 304 307 307 309 309 315 316 316 314 311 313 321 322 321 318 316 317 316 317 318 321 321 322 335 347 349 353
306 307 307 307 307 307 307 307 307 308 308 309 309 308 308 308 307 306 312 313 313 311 316 311 313 315 314 312 312 318 324 320 319 318 317 318 318 318 319 318 319 319 346 345 345
306 306 307 307 307 307 307 308 308 308 308 309 308 308 307 308 307 317 313 312 308 313 317 314 311 312 314 313 313 312 319 321 320 319 319 318 319 319 319 317 319 319 331 343 342
305 306 306 306 306 306 306 307 308 308 308 308 308 308 308 309 309 307 309 309 309 312 315 314 312 311 313 315 314 315 314 317 320 320 320 319 319 318 318 319 318 318 319 338 340
305 305 305 305 304 306 306 307 307 307 308 309 309 308 309 309 307 308 309 309 309 311 313 315 314 313 313 314 314 314 317 316 317 319 320 320 318 317 318 319 320 320 320 319 335
305 303 301 301 301 305 306 306 307 305 307 308 310 309 308 308 308 309 309 310 310 310 309 309 316 317 317 317 317 316 316 319 318 318 320 319 318 318 318 319 318 319 319 319 327
302 300 298 300 302 305 305 303 304 307 306 308 310 310 311 310 310 310 310 311 311 310 309 309 310 309 311 316 319 318 318 318 319 319 320 317 318 318 317 317 317 319 318 318 320
302 300 299 300 303 305 303 306 308 311 310 310 311 311 313 313 313 312 311 311 311 311 309 309 309 309 309 314 318 320 319 319 319 320 320 321 319 318 316 316 316 317 317 317 318
302 299 300 301 304 305 302 307 312 312 312 313 311 312 312 314 313 312 311 310 311 310 312 312 308 309 311 313 322 323 319 319 319 320 321 321 320 317 317 316 317 317 317 316 316
302 300 300 302 304 302 304 306 309 312 310 309 310 313 312 311 311 311 311 311 311 310 309 312 313 310 311 312 315 321 320 320 320 320 320 320 320 317 317 316 316 316 316 315 316
301 300 301 303 302 305 307 309 310 309 310 310 311 311 311 311 311 311 311 312 312 310 308 308 314 311 311 312 314 319 321 320 320 321 320 319 319 318 318 317 316 317 316 316 316
300 301 302 303 303 310 312 311 310 310 310 311 313 313 312 312 312 311 313 314 313 312 310 310 313 312 310 311 315 316 321 320 320 320 321 320 320 319 319 318 317 318 317 317 317
300 302 303 303 309 308 311 310 311 310 312 316 314 313 313 312 314 314 313 314 313 313 312 311 312 313 312 310 313 317 319 321 321 320 320 320 321 320 319 319 318 318 317 317 317
301 302 304 304 305 309 310 310 312 311 321 314 313 312 313 315 316 316 315 313 313 314 313 314 314 314 313 311 311 315 317 320 321 322 323 321 320 321 319 320 320 318 318 318 317
302 304 306 307 309 311 310 310 313 318 319 313 312 312 314 316 315 316 316 313 313 315 315 314 313 313 315 314 311 314 316 319 320 321 325 325 319 318 320 320 320 319 319 319 318
303 306 309 308 310 311 312 313 317 317 313 314 312 313 315 314 314 314 316 316 315 317 318 316 314 311 315 316 315 311 315 321 324 324 333 326 324 319 320 320 319 319 319 319 318
304 310 313 311 311 312 313 317 319 314 313 312 313 314 313 313 314 313 315 319 316 317 318 323 318 313 313 314 316 311 311 328 331 327 327 326 328 321 320 321 320 320 318 318 317
307 311 313 313 311 312 314 316 316 313 312 313 313 314 314 316 314 313 314 315 317 313 319 322 317 312 312 314 316 318 314 318 324 323 326 327 326 329 324 324 320 320 319 318 317
306 311 314 309 312 313 315 316 313 312 312 313 316 317 319 315 315 315 314 318 315 315 316 318 321 314 312 314 315 317 315 318 326 331 331 328 326 328 330 328 321 319 318 325 340
309 314 310 311 312 311 311 313 312 311 311 312 315 317 316 317 315 317 315 317 314 315 315 318 320 316 312 316 319 318 320 320 322 326 325 331 329 330 338 322 328 334 337 341 341
309 313 309 311 311 311 311 313 311 312 311 312 314 314 316 315 317 316 316 316 315 315 317 317 322 321 312 316 317 317 318 321 325 326 327 330 333 334 335 335 335 334 341 340 338
310 312 309 310 314 314 313 314 313 312 312 313 314 314 314 316 316 316 316 315 316 317 315 317 322 320 317 320 320 320 319 321 322 326 328 333 337 336 334 335 336 340 339 337 336
310 308 309 308 310 312 313 314 312 312 312 313 314 314 315 316 315 317 316 316 316 318 317 317 320 323 319 318 321 323 323 320 322 329 333 334 341 336 332 332 334 334 334 334 333
307 307 307 308 309 309 313 312 312 313 312 314 315 315 315 316 316 318 316 316 316 317 316 319 321 321 322 323 319 322 322 323 323 326 331 334 336 335 333 332 331 331 331 329 327
307 306 306 306 308 310 312 312 311 312 314 315 314 314 314 316 316 316 316 317 319 317 316 318 322 322 322 322 322 320 320 321 321 323 333 334 337 333 331 329 331 329 327 325 322
305 306 306 307 308 309 311 311 311 312 312 312 312 314 315 314 313 313 314 315 317 318 319 316 323 326 326 323 324 323 321 321 324 331 331 335 333 330 328 328 326 325 322 321 319
Wind_Speed
21 21 22 23 23 23 23 23 23 23 23 23 23 23 25 26 31 32 15 24 12 18 15 18 18 18 20 6 9 7 7 17 25 19 12 18 7 10 7 6 4 6 14 19 31
22 22 23 24 25 26 26 25 25 25 24 23 23 24 24 26 30 28 40 22 20 26 26 15 11 13 7 10 6 10 12 26 9 12 15 17 10 11 3 2 3 11 16 21 29
22 23 24 25 26 28 28 27 27 27 26 23 22 21 21 22 11 8 11 11 17 18 22 26 20 12 15 10 10 6 26 14 16 15 19 20 20 9 5 5 7 9 17 13 11
24 25 26 27 28 29 30 29 28 26 25 23 21 20 17 11 7 5 6 27 25 18 11 19 14 14 5 12 18 17 22 21 18 15 23 21 16 14 3 9 10 9 15 17 12
25 26 28 29 30 31 31 32 30 28 25 22 20 16 9 7 12 31 21 23 23 16 10 8 12 12 20 7 16 24 23 17 18 21 23 17 19 13 10 5 10 10 8 14 14
27 28 30 32 35 36 36 35 33 33 28 22 16 11 7 17 18 16 21 23 23 15 16 13 10 11 11 15 20 5 18 21 19 21 23 20 16 7 11 4 3 8 3 8 14
31 34 36 37 41 40 40 39 37 33 26 20 13 8 10 23 13 19 23 25 18 21 15 22 23 16 10 14 25 23 22 16 23 24 24 14 18 23 9 1 7 6 6 7 9
34 37 40 41 43 41 38 35 34 30 25 17 10 8 8 26 23 27 26 27 15 19 21 24 26 15 14 13 20 16 15 18 23 25 24 13 24 15 8 6 8 7 8 8 3
36 39 41 46 43 40 32 32 35 25 16 8 4 7 9 17 10 20 20 19 6 10 13 18 15 11 14 14 15 13 16 21 24 21 20 19 10 9 8 8 9 7 8 8 6
36 41 44 48 43 37 32 32 21 9 4 8 7 4 6 5 16 29 28 15 6 1 6 6 7 9 12 14 15 17 23 21 25 24 25 24 17 8 10 12 10 8 9 9 8
36 43 47 45 42 30 33 18 6 0 4 8 13 15 23 39 35 27 24 4 6 5 6 5 5 15 17 20 23 19 20 22 15 20 16 23 16 14 10 9 14 10 9 10 9
41 46 47 43 35 20 16 4 7 3 12 18 16 22 33 26 19 17 23 11 7 9 8 10 13 21 18 19 23 25 23 21 16 18 19 12 16 9 13 12 14 15 12 11 10
46 49 44 40 22 11 10 15 9 10 4 12 11 13 10 12 10 16 12 13 10 12 14 13 11 14 25 21 21 26 23 19 16 16 16 11 7 16 19 17 8 19 16 11 17
49 49 45 33 5 21 8 15 10 9 2 5 9 6 9 13 8 4 11 11 5 10 19 12 17 18 20 24 21 22 21 21 16 13 13 17 13 14 19 15 14 10 18 15 12
51 48 38 16 13 7 15 20 4 6 4 5 15 18 23 10 17 3 4 4 10 14 11 8 9 13 18 21 22 20 19 17 19 13 1 15 10 16 13 11 15 14 15 17 12
52 44 29 7 7 19 24 22 2 3 4 10 19 23 24 15 10 2 1 7 5 8 14 19 15 14 9 15 21 18 18 19 16 9 7 18 10 7 15 23 14 8 13 17 13
50 39 14 11 6 18 18 4 3 2 18 16 26 25 12 19 16 14 15 4 4 5 7 10 20 19 14 6 17 21 14 7 10 8 6 11 7 7 15 14 12 11 11 12 13
47 19 12 14 15 14 13 3 2 15 13 20 22 21 10 18 16 19 11 5 6 7 3 4 4 18 21 23 6 18 14 3 5 8 11 11 7 13 10 15 12 14 11 10 12
40 19 12 11 11 7 4 3 4 10 16 18 19 10 12 19 11 14 13 2 7 4 3 4 5 13 17 9 10 6 12 18 5 5 5 5 4 2 15 12 15 18 17 10 10
28 9 9 21 23 5 4 5 8 12 16 15 8 6 13 18 12 14 8 2 6 9 5 4 6 12 18 15 15 8 6 10 4 5 6 5 9 5 5 5 16 19 11 13 19
7 4 14 21 10 4 2 4 10 16 14 10 14 10 14 8 7 6 6 7 1 7 11 3 3 3 17 6 10 3 2 5 3 4 5 6 5 6 6 13 18 20 22 21 21
10 4 17 20 5 4 4 6 8 13 12 8 6 6 5 7 6 5 7 9 1 8 8 4 3 4 13 14 18 6 8 8 7 6 3 4 1 9 15 17 22 22 25 24 23
7 3 15 14 3 4 7 11 10 13 15 8 6 9 3 10 8 6 8 8 5 10 4 5 1 3 6 7 4 4 8 11 8 3 4 2 2 7 11 16 15 25 23 22 24
3 4 4 4 7 8 10 11 15 12 9 14 11 11 13 13 11 9 12 8 18 6 9 5 3 3 1 3 4 3 5 5 3 1 5 3 7 4 6 10 10 15 20 20 21
4 4 4 5 7 16 11 15 19 13 9 7 3 8 20 11 16 3 19 21 11 5 4 5 3 5 10 14 7 6 6 5 6 12 5 9 13 7 5 5 11 12 16 22 22
4 4 3 12 14 14 9 13 19 21 11 11 13 21 18 15 11 25 22 20 5 2 1 2 3 6 6 3 8 3 7 10 12 22 16 16 12 5 6 9 11 17 22 23 21
7 7 4 8 8 11 8 16 20 17 8 16 18 20 19 14 22 24 22 23 15 6 2 1 2 2 1 2 4 7 6 8 2 13 13 14 9 13 8 15 16 19 21 23 21
Wind_Direction
350 347 345 342 337 334 330 327 324 323 321 320 320 319 319 319 316 313 270 249 242 299 285 278 280 271 248 233 253 240 231 238 238 233 243 264 261 281 266 201 42 39 106 130 138
348 345 342 338 334 330 327 324 321 320 318 317 316 317 320 323 317 293 287 266 270 270 261 241 251 248 224 212 235 208 220 234 235 242 257 272 275 262 259 116 79 92 111 119 137
344 341 338 333 330 327 324 321 319 318 316 313 313 316 319 329 295 237 115 67 358 325 252 231 249 263 252 208 212 247 233 240 238 251 264 273 282 283 192 208 167 148 140 135 138
342 338 334 331 327 324 320 315 311 308 307 310 309 311 314 316 287 33 337 303 329 322 252 218 234 244 262 232 214 247 247 245 250 238 249 257 275 292 264 196 160 174 148 147 148
339 335 332 329 325 322 317 312 309 305 306 303 304 308 311 251 245 288 310 313 303 266 257 229 221 225 240 243 248 234 238 245 249 259 263 285 284 277 293 192 158 177 170 161 154
337 334 331 330 329 324 320 314 307 305 305 300 297 301 253 262 260 265 296 304 302 280 259 223 251 234 277 237 245 269 230 239 247 245 253 255 275 286 266 312 239 130 128 181 154
336 335 337 337 336 328 322 317 312 307 302 296 283 263 256 249 243 268 275 281 282 294 288 290 221 236 217 245 247 248 263 244 230 241 246 235 259 253 245 217 302 184 152 88 148
336 336 340 338 336 329 324 321 316 312 306 293 257 221 253 267 275 273 269 273 274 272 263 283 288 283 263 269 281 251 246 245 239 230 236 193 239 240 209 185 256 227 163 137 153
335 337 340 339 334 328 325 319 320 320 306 249 184 195 263 295 220 258 246 247 278 300 275 264 283 284 277 261 259 256 230 233 240 231 220 216 219 209 191 201 231 204 167 152 173
334 337 341 339 329 327 324 321 329 344 101 163 239 206 247 255 295 306 306 255 219 331 287 302 282 271 262 243 231 227 218 229 224 224 210 224 228 184 228 192 204 199 169 165 195
334 341 342 337 329 329 328 333 353 32 340 281 264 240 280 274 285 279 276 296 276 194 256 230 256 240 246 232 243 244 246 236 249 221 231 216 213 196 228 205 198 185 179 178 193
340 345 342 336 333 329 324 264 71 6 307 298 267 253 255 264 271 278 276 282 292 240 256 260 225 251 242 257 236 245 244 235 227 223 225 205 206 200 209 232 196 193 185 181 199
343 344 341 335 335 340 313 309 60 42 288 306 288 291 349 311 310 269 314 275 245 265 250 238 246 249 247 247 258 238 238 243 230 206 230 208 216 202 210 220 211 197 190 177 191
344 342 340 337 1 329 289 358 40 30 334 271 343 355 294 301 302 9 4 304 211 244 257 223 241 240 251 240 244 249 238 244 247 217 215 204 218 219 203 207 216 202 191 184 182
343 341 342 342 286 291 299 331 25 69 313 33 358 343 332 352 312 21 281 195 257 256 279 268 213 248 237 237 237 266 241 236 250 264 224 200 196 207 170 209 212 209 181 181 180
343 338 339 356 279 294 314 331 339 325 313 336 347 338 338 340 17 313 186 27 6 259 262 263 261 252 270 271 234 244 269 243 246 247 258 255 174 203 186 206 203 182 173 171 171
340 337 315 282 253 325 326 19 14 33 336 340 336 332 337 352 346 352 322 231 216 243 219 266 234 230 219 257 255 229 233 228 217 218 214 264 262 196 205 199 189 170 158 158 159
339 342 324 282 294 310 335 17 310 346 337 334 333 319 353 358 333 344 317 341 271 221 303 264 266 195 201 220 189 224 225 216 138 158 209 220 231 203 211 187 186 158 157 150 157
342 352 304 303 311 325 43 11 349 1 344 332 330 333 338 336 346 347 326 284 350 206 281 302 258 185 185 151 146 218 213 199 309 177 133 194 277 185 181 181 174 160 156 150 150
335 316 285 351 2 246 51 306 347 354 340 339 317 322 317 332 342 342 297 358 340 355 308 287 300 188 178 175 185 221 180 192 191 183 156 160 203 206 155 216 164 147 127 113 92
328 324 16 7 18 28 77 311 318 347 349 338 315 306 318 322 310 306 285 298 12 313 329 252 265 215 157 159 205 166 181 241 17 264 160 151 218 125 80 141 123 110 104 100 100
328 330 23 18 42 344 351 336 310 355 349 325 295 310 305 304 283 295 298 313 114 11 324 302 322 298 177 156 196 194 215 185 181 260 290 141 266 332 102 92 102 106 103 104 103
310 267 13 9 32 349 319 310 336 356 340 353 310 315 316 311 305 247 278 304 326 320 297 339 288 323 345 114 106 172 234 184 180 344 171 99 267 9 53 82 89 110 111 110 110
299 344 350 328 357 339 316 347 351 355 336 336 305 305 310 312 294 284 289 301 317 326 245 186 291 258 209 137 145 113 309 161 179 357 53 358 104 68 71 100 103 100 110 110 108
15 14 46 312 318 311 309 2 346 343 358 354 299 325 329 309 312 272 313 312 329 131 325 185 259 248 265 285 128 161 250 326 289 210 131 157 142 153 129 124 119 125 107 104 105
14 351 332 294 283 318 17 345 349 337 346 334 324 323 314 302 294 309 308 301 282 183 125 304 291 346 257 311 337 187 206 230 256 200 121 120 113 114 111 87 110 108 106 105 101
349 317 291 279 324 333 339 336 340 333 314 324 323 318 318 314 305 289 281 273 258 238 256 230 277 218 342 148 290 211 255 201 354 69 122 143 135 114 102 112 105 107 103 102 99